Погода в Мальмё

Швеция     55˚36′22″N   13˚00′00″E
темп.,
°C
ветер,
м/с
пор.,
м/с
влажн.,
%
обл.,
%
осадки,
мм/ч
давл.,
гПа
погр.,
м
17 января, вс
вс1701:00−4˚вюв348822 0.0 1018147
04:00−3˚вюв129171 0.0 1018136
07:00−2˚в229473 0.1 1018113
10:00юв239695 0.4 1020166
13:00ю689496 0.9 1020504
16:00ююз2394100 0.6 1020208
19:00ююз4688100 1.3 1021371
22:00ююз5683100 0.3 1020477
18 января, пн
пн1801:00ююз5778100 0.3 1019589
04:00ююз6879100 0.0 1017572
07:00−1˚ююз689599 0.2 1016455
10:00+1˚ююз799598 0.3 1015422
13:00+2˚ююз799599 0.4 1013403
16:00+2˚ю7998100 1.6 1010328
19:00+3˚з5996100 3.1 1009247
22:00+3˚зюз7109598 0.3 1008345
19 января, вт
вт1901:00+2˚з688997 0.3 1009223
04:00+2˚зюз4790100 0.0 1007190
07:00+3˚юз6998100 0.3 1006349
10:00+3˚ююз6994100 0.1 1004392
13:00+3˚ююв6998100 0.6 1001321
16:00+3˚ю6998100 3.1 998269
19:00+3˚ю71097100 4.3 997268
22:00+4˚ююз6998100 0.9 996191
20 января, ср
ср2001:00+4˚ююз61099100 1.8 995207
04:00+5˚ююз91498100 2.5 993316
07:00+6˚юз111995100 4.3 992540
10:00+5˚юз122094100 0.9 992589
13:00+6˚юз122092100 1.9 993624
16:00+6˚юз112091100 0.3 993559
19:00+5˚юз91790100 0.4 994451
22:00+5˚ююз101586100 0.0 994411
21 января, чт
чт2101:00+5˚ююз91581100 0.1 995387
04:00+5˚ююз91687100 0.0 994397
07:00+5˚ю101787100 0.5 993431
10:00+6˚ююз112082100 0.0 992543
13:00+7˚ююз13228199 0.4 992689
16:00+6˚ююз91388100 0.3 992317
19:00+5˚ююз71180100 0.3 992243
22:00+5˚ю81386100 0.0 992293